This is the latest recevied weather packets stored in our database for station/object KG5TTF. If no packets are shown the sender has not sent any weather packets the latest 10 day(s).
| Time | Temp. | Humidity | Pressure | Rain* | Wind** | Luminosity | Snow |
|---|---|---|---|---|---|---|---|
| 1777402023 | 10° C | 56% | 1019.4 hPa | 0 mm | - | 177 W/m² | - |
| 1777401723 | 10° C | 55% | 1019.4 hPa | 0 mm | - | 238 W/m² | - |
| 1777401419 | 10° C | 55% | 1019.3 hPa | 0 mm | - | 315 W/m² | - |
| 1777401114 | 10° C | 55% | 1019.6 hPa | 0 mm | - | 231 W/m² | - |
| 1777400810 | 10.56° C | 51% | 1019.4 hPa | 0 mm | - | 171 W/m² | - |
| 1777400507 | 10.56° C | 47% | 1019.6 hPa | 0 mm | - | 294 W/m² | - |
| 1777400204 | 10.56° C | 51% | 1019.6 hPa | 0 mm | - | 317 W/m² | - |
| 1777399899 | 10.56° C | 51% | 1019.6 hPa | 0 mm | - | 311 W/m² | - |
| 1777399597 | 11.67° C | 46% | 1019.6 hPa | 0 mm | - | 261 W/m² | - |
| 1777399294 | 11.67° C | 43% | 1019.4 hPa | 0 mm | - | 1080 W/m² | - |
| 1777398992 | 11.67° C | 42% | 1019.4 hPa | 0 mm | - | 929 W/m² | - |
| 1777398689 | 11.67° C | 43% | 1019.4 hPa | 0 mm | - | 932 W/m² | - |
| 1777398386 | 11.11° C | 43% | 1019 hPa | 0 mm | - | 876 W/m² | - |
| 1777398082 | 11.11° C | 47% | 1019.4 hPa | 0 mm | - | 928 W/m² | - |
| 1777397780 | 11.11° C | 44% | 1019.6 hPa | 0 mm | - | 1038 W/m² | - |
| 1777397480 | 11.11° C | 46% | 1019.3 hPa | 0 mm | - | 852 W/m² | - |
| 1777397176 | 11.11° C | 49% | 1019.6 hPa | 0 mm | - | 886 W/m² | - |
| 1777396874 | 11.11° C | 50% | 1019.4 hPa | 0 mm | - | 819 W/m² | - |
| 1777396569 | 11.67° C | 49% | 1019.4 hPa | 0 mm | - | 805 W/m² | - |
| 1777396267 | 11.11° C | 48% | 1019.3 hPa | 0 mm | - | 794 W/m² | - |
| 1777395962 | 10.56° C | 50% | 1019.6 hPa | 0 mm | - | 783 W/m² | - |
| 1777395657 | 10.56° C | 48% | 1019.4 hPa | 0 mm | - | 768 W/m² | - |
| 1777395354 | 10° C | 52% | 1019.4 hPa | 0 mm | - | 758 W/m² | - |
| 1777395052 | 10° C | 51% | 1019.3 hPa | 0 mm | - | 744 W/m² | - |
| 1777394748 | 9.44° C | 56% | 1019.4 hPa | 0 mm | - | 732 W/m² | - |
* Rain latest hour (hover to see other rain measurements)
** Current wind speed in m/s (hover to see current wind gust speed)